Location: Bocchiglicro
(39.4167°N, 16.7500°E)
Time: 20:58:16
(UTC+00:00)

Cosmos 2322 - Pass Details

Date: 07 June 2020
Orbit: 840 x 855 km, 71.0° (Epoch: 11 July)

Event Time Altitude Azimuth Distance (km) Brightness Sun altitude
Exits shadow 02:43:43 - 229° (SW) 2,551 5.5 -7.6°
Reaches altitude 10° 02:43:56 10° 230° (SW) 2,473 5.4 -7.6°
Maximum altitude 02:49:15 40° 299° (WNW) 1,239 4.4 -6.7°
Drops below altitude 10° 02:54:37 10° 9° (N) 2,493 6.9 -5.9°
Sets 02:57:15 0° 17° (NNE) 3,433 7.8 -5.5°
